Year,Month,Day,Hour,Minute,Value (Times are PST for temperature in C)
2012,05,26,00,00,14.20
2012,05,26,00,01,14.20
2012,05,26,00,02,14.20
2012,05,26,00,03,14.20
2012,05,26,00,04,14.10
2012,05,26,00,05,14.10
2012,05,26,00,06,14.10
2012,05,26,00,07,14.10
2012,05,26,00,08,14.10
2012,05,26,00,09,14.10
2012,05,26,00,10,14.10
2012,05,26,00,11,14.00
2012,05,26,00,12,14.00
2012,05,26,00,16,13.90
2012,05,26,00,17,13.90
2012,05,26,00,18,13.80
2012,05,26,00,19,13.80
2012,05,26,00,20,13.80
2012,05,26,00,21,13.80
2012,05,26,00,22,13.70
2012,05,26,00,23,13.70
2012,05,26,00,24,13.70
2012,05,26,00,25,13.70
2012,05,26,00,26,13.70
2012,05,26,00,27,13.70
2012,05,26,00,28,13.70
2012,05,26,00,29,13.60
2012,05,26,00,30,13.60
2012,05,26,00,31,13.60
2012,05,26,00,32,13.60
2012,05,26,00,33,13.50
2012,05,26,00,34,13.50
2012,05,26,00,35,13.50
2012,05,26,00,36,13.40
2012,05,26,00,37,13.40
2012,05,26,00,38,13.40
2012,05,26,00,39,13.30
2012,05,26,00,40,13.30
2012,05,26,00,41,13.30
2012,05,26,00,42,13.30
2012,05,26,00,43,13.30
2012,05,26,00,44,13.30
2012,05,26,00,45,13.20
2012,05,26,00,46,13.20
2012,05,26,00,47,13.20
2012,05,26,00,48,13.20
2012,05,26,00,49,13.10
2012,05,26,00,50,13.10
2012,05,26,00,51,13.10
2012,05,26,00,52,13.00
2012,05,26,00,53,13.00
2012,05,26,00,54,13.00
2012,05,26,00,55,13.00
2012,05,26,00,56,12.90
2012,05,26,00,57,12.90
2012,05,26,00,58,12.90
2012,05,26,00,59,12.80
2012,05,26,01,00,12.80
2012,05,26,01,01,12.80
2012,05,26,01,02,12.80
2012,05,26,01,03,12.80
2012,05,26,01,04,12.70
2012,05,26,01,05,12.70
2012,05,26,01,06,12.70
2012,05,26,01,07,12.60
2012,05,26,01,08,12.60
2012,05,26,01,09,12.60
2012,05,26,01,10,12.60
2012,05,26,01,11,12.50
2012,05,26,01,12,12.50
2012,05,26,01,13,12.50
2012,05,26,01,14,12.50
2012,05,26,01,15,12.50
2012,05,26,01,16,12.40
2012,05,26,01,17,12.40
2012,05,26,01,18,12.40
2012,05,26,01,19,12.30
2012,05,26,01,20,12.30
2012,05,26,01,21,12.30
2012,05,26,01,22,12.30
2012,05,26,01,23,12.30
2012,05,26,01,24,12.30
2012,05,26,01,25,12.30
2012,05,26,01,26,12.30
2012,05,26,01,27,12.30
2012,05,26,01,28,12.30
2012,05,26,01,29,12.20
2012,05,26,01,30,12.20
2012,05,26,01,31,12.20
2012,05,26,01,32,12.20
2012,05,26,01,33,12.20
2012,05,26,01,34,12.20
2012,05,26,01,35,12.10
2012,05,26,01,36,12.10
2012,05,26,01,37,12.10
2012,05,26,01,38,12.10
2012,05,26,01,39,12.10
2012,05,26,01,40,12.10
2012,05,26,01,41,12.00
2012,05,26,01,42,12.00
2012,05,26,01,43,12.00
2012,05,26,01,44,12.00
2012,05,26,01,45,12.00
2012,05,26,01,46,11.90
2012,05,26,01,47,11.90
2012,05,26,01,48,11.90
2012,05,26,01,49,11.90
2012,05,26,01,50,11.90
2012,05,26,01,51,11.90
2012,05,26,01,52,11.90
2012,05,26,01,53,11.90
2012,05,26,01,54,11.80
2012,05,26,01,55,11.80
2012,05,26,01,56,11.80
2012,05,26,01,57,11.80
2012,05,26,01,58,11.80
2012,05,26,01,59,11.80
2012,05,26,02,00,11.80
2012,05,26,02,01,11.80
2012,05,26,02,02,11.80
2012,05,26,02,03,11.80
2012,05,26,02,04,11.80
2012,05,26,02,05,11.80
2012,05,26,02,06,11.80
2012,05,26,02,07,11.80
2012,05,26,02,08,11.80
2012,05,26,02,09,11.80
2012,05,26,02,10,11.80
2012,05,26,02,11,11.70
2012,05,26,02,12,11.70
2012,05,26,02,13,11.70
2012,05,26,02,14,11.70
2012,05,26,02,15,11.70
2012,05,26,02,16,11.70
2012,05,26,02,17,11.70
2012,05,26,02,18,11.60
2012,05,26,02,19,11.60
2012,05,26,02,20,11.60
2012,05,26,02,21,11.60
2012,05,26,02,22,11.60
2012,05,26,02,23,11.60
2012,05,26,02,24,11.60
2012,05,26,02,25,11.60
2012,05,26,02,26,11.60
2012,05,26,02,27,11.50
2012,05,26,02,28,11.40
2012,05,26,02,29,11.40
2012,05,26,02,30,11.40
2012,05,26,02,31,11.40
2012,05,26,02,32,11.40
2012,05,26,02,33,11.40
2012,05,26,02,34,11.40
2012,05,26,02,35,11.40
2012,05,26,02,36,11.40
2012,05,26,02,37,11.40
2012,05,26,02,38,11.30
2012,05,26,02,39,11.30
2012,05,26,02,40,11.30
2012,05,26,02,41,11.30
2012,05,26,02,42,11.30
2012,05,26,02,43,11.30
2012,05,26,02,44,11.20
2012,05,26,02,45,11.20
2012,05,26,02,46,11.20
2012,05,26,02,47,11.20
2012,05,26,02,48,11.20
2012,05,26,02,49,11.10
2012,05,26,02,50,11.10
2012,05,26,02,51,11.10
2012,05,26,02,52,11.10
2012,05,26,02,53,11.10
2012,05,26,02,54,11.10
2012,05,26,02,55,11.10
2012,05,26,02,56,11.10
2012,05,26,02,57,11.10
2012,05,26,02,58,11.10
2012,05,26,02,59,11.10
2012,05,26,03,00,10.90
2012,05,26,03,01,10.90
2012,05,26,03,02,10.90
2012,05,26,03,03,10.90
2012,05,26,03,04,10.90
2012,05,26,03,05,10.90
2012,05,26,03,06,10.90
2012,05,26,03,07,10.90
2012,05,26,03,08,10.90
2012,05,26,03,09,10.90
2012,05,26,03,10,10.90
2012,05,26,03,11,10.90
2012,05,26,03,12,10.80
2012,05,26,03,13,10.80
2012,05,26,03,14,10.80
2012,05,26,03,15,10.80
2012,05,26,03,16,10.80
2012,05,26,03,17,10.80
2012,05,26,03,18,10.80
2012,05,26,03,19,10.80
2012,05,26,03,20,10.80
2012,05,26,03,21,10.80
2012,05,26,03,22,10.70
2012,05,26,03,23,10.70
2012,05,26,03,24,10.70
2012,05,26,03,25,10.70
2012,05,26,03,26,10.70
2012,05,26,03,27,10.70
2012,05,26,03,28,10.70
2012,05,26,03,29,10.70
2012,05,26,03,30,10.70
2012,05,26,03,31,10.70
2012,05,26,03,32,10.70
2012,05,26,03,33,10.70
2012,05,26,03,34,10.70
2012,05,26,03,35,10.70
2012,05,26,03,36,10.70
2012,05,26,03,37,10.70
2012,05,26,03,38,10.70
2012,05,26,03,39,10.70
2012,05,26,03,40,10.70
2012,05,26,03,41,10.70
2012,05,26,03,42,10.70
2012,05,26,03,43,10.70
2012,05,26,03,44,10.70
2012,05,26,03,45,10.70
2012,05,26,03,46,10.70
2012,05,26,03,47,10.70
2012,05,26,03,48,10.70
2012,05,26,03,49,10.70
2012,05,26,03,50,10.70
2012,05,26,03,51,10.70
2012,05,26,03,52,10.70
2012,05,26,03,53,10.70
2012,05,26,03,54,10.70
2012,05,26,03,55,10.70
2012,05,26,03,56,10.70
2012,05,26,03,57,10.60
2012,05,26,03,58,10.60
2012,05,26,03,59,10.60
2012,05,26,04,00,10.60
2012,05,26,04,01,10.60
2012,05,26,04,02,10.60
2012,05,26,04,03,10.60
2012,05,26,04,04,10.60
2012,05,26,04,05,10.60
2012,05,26,04,06,10.60
2012,05,26,04,07,10.60
2012,05,26,04,08,10.60
2012,05,26,04,09,10.60
2012,05,26,04,10,10.60
2012,05,26,04,11,10.60
2012,05,26,04,12,10.60
2012,05,26,04,13,10.60
2012,05,26,04,14,10.60
2012,05,26,04,15,10.60
2012,05,26,04,16,10.60
2012,05,26,04,17,10.60
2012,05,26,04,18,10.60
2012,05,26,04,19,10.60
2012,05,26,04,20,10.60
2012,05,26,04,21,10.60
2012,05,26,04,22,10.60
2012,05,26,04,23,10.60
2012,05,26,04,24,10.60
2012,05,26,04,25,10.60
2012,05,26,04,26,10.60
2012,05,26,04,27,10.60
2012,05,26,04,28,10.50
2012,05,26,04,29,10.40
2012,05,26,04,30,10.40
2012,05,26,04,31,10.40
2012,05,26,04,32,10.40
2012,05,26,04,33,10.40
2012,05,26,04,34,10.40
2012,05,26,04,35,10.40
2012,05,26,04,36,10.40
2012,05,26,04,37,10.40
2012,05,26,04,38,10.40
2012,05,26,04,39,10.40
2012,05,26,04,40,10.40
2012,05,26,04,41,10.30
2012,05,26,04,42,10.30
2012,05,26,04,43,10.30
2012,05,26,04,44,10.30
2012,05,26,04,45,10.30
2012,05,26,04,46,10.30
2012,05,26,04,47,10.30
2012,05,26,04,48,10.20
2012,05,26,04,49,10.20
2012,05,26,04,50,10.20
2012,05,26,04,51,10.20
2012,05,26,04,52,10.20
2012,05,26,04,53,10.20
2012,05,26,04,54,10.20
2012,05,26,04,55,10.20
2012,05,26,04,56,10.10
2012,05,26,04,57,10.10
2012,05,26,04,58,10.10
2012,05,26,04,59,10.10
2012,05,26,05,00,10.10
2012,05,26,05,01,10.10
2012,05,26,05,02,10.10
2012,05,26,05,03,10.10
2012,05,26,05,04,10.10
2012,05,26,05,05,10.10
2012,05,26,05,06,10.10
2012,05,26,05,07,10.10
2012,05,26,05,08,10.00
2012,05,26,05,09,9.90
2012,05,26,05,10,9.90
2012,05,26,05,11,9.90
2012,05,26,05,12,9.90
2012,05,26,05,13,9.90
2012,05,26,05,14,9.90
2012,05,26,05,15,9.90
2012,05,26,05,16,9.90
2012,05,26,05,17,9.90
2012,05,26,05,18,9.90
2012,05,26,05,19,9.80
2012,05,26,05,20,9.80
2012,05,26,05,21,9.80
2012,05,26,05,22,9.80
2012,05,26,05,23,9.80
2012,05,26,05,24,9.70
2012,05,26,05,25,9.70
2012,05,26,05,26,9.70
2012,05,26,05,27,9.70
2012,05,26,05,28,9.70
2012,05,26,05,29,9.70
2012,05,26,05,30,9.70
2012,05,26,05,31,9.70
2012,05,26,05,32,9.70
2012,05,26,05,33,9.70
2012,05,26,05,34,9.70
2012,05,26,05,35,9.70
2012,05,26,05,36,9.60
2012,05,26,05,37,9.60
2012,05,26,05,38,9.60
2012,05,26,05,39,9.60
2012,05,26,05,40,9.60
2012,05,26,05,41,9.60
2012,05,26,05,42,9.60
2012,05,26,05,43,9.60
2012,05,26,05,44,9.60
2012,05,26,05,45,9.60
2012,05,26,05,46,9.60
2012,05,26,05,47,9.60
2012,05,26,05,48,9.60
2012,05,26,05,49,9.60
2012,05,26,05,50,9.50
2012,05,26,05,51,9.50
2012,05,26,05,52,9.50
2012,05,26,05,53,9.50
2012,05,26,05,54,9.50
2012,05,26,05,55,9.50
2012,05,26,05,56,9.50
2012,05,26,05,57,9.50
2012,05,26,05,58,9.50
2012,05,26,05,59,9.50
2012,05,26,06,00,9.50
2012,05,26,06,01,9.50
2012,05,26,06,02,9.50
2012,05,26,06,03,9.50
2012,05,26,06,04,9.50
2012,05,26,06,05,9.50
2012,05,26,06,06,9.60
2012,05,26,06,07,9.60
2012,05,26,06,08,9.60
2012,05,26,06,09,9.60
2012,05,26,06,10,9.60
2012,05,26,06,11,9.60
2012,05,26,06,12,9.70
2012,05,26,06,13,9.70
2012,05,26,06,14,9.70
2012,05,26,06,15,9.70
2012,05,26,06,16,9.70
2012,05,26,06,17,9.70
2012,05,26,06,18,9.70
2012,05,26,06,19,9.70
2012,05,26,06,20,9.80
2012,05,26,06,21,9.80
2012,05,26,06,22,9.80
2012,05,26,06,23,9.90
2012,05,26,06,24,9.90
2012,05,26,06,25,9.90
2012,05,26,06,26,9.90
2012,05,26,06,27,10.00
2012,05,26,06,28,10.10
2012,05,26,06,29,10.10
2012,05,26,06,30,10.10
2012,05,26,06,31,10.10
2012,05,26,06,32,10.20
2012,05,26,06,33,10.20
2012,05,26,06,34,10.30
2012,05,26,06,35,10.30
2012,05,26,06,36,10.30
2012,05,26,06,37,10.40
2012,05,26,06,38,10.40
2012,05,26,06,39,10.40
2012,05,26,06,40,10.40
2012,05,26,06,41,10.40
2012,05,26,06,42,10.60
2012,05,26,06,43,10.60
2012,05,26,06,44,10.60
2012,05,26,06,45,10.60
2012,05,26,06,46,10.60
2012,05,26,06,47,10.60
2012,05,26,06,48,10.70
2012,05,26,06,49,10.70
2012,05,26,06,50,10.80
2012,05,26,06,51,10.80
2012,05,26,06,52,10.80
2012,05,26,06,53,10.90
2012,05,26,06,54,10.90
2012,05,26,06,55,10.90
2012,05,26,06,56,11.00
2012,05,26,06,57,11.10
2012,05,26,06,58,11.10
2012,05,26,06,59,11.10
2012,05,26,07,00,11.20
2012,05,26,07,01,11.20
2012,05,26,07,02,11.30
2012,05,26,07,03,11.40
2012,05,26,07,04,11.40
2012,05,26,07,05,11.40
2012,05,26,07,06,11.50
2012,05,26,07,07,11.60
2012,05,26,07,08,11.60
2012,05,26,07,09,11.60
2012,05,26,07,10,11.70
2012,05,26,07,11,11.80
2012,05,26,07,12,11.80
2012,05,26,07,13,11.90
2012,05,26,07,14,11.90
2012,05,26,07,15,12.00
2012,05,26,07,16,12.00
2012,05,26,07,17,12.10
2012,05,26,07,18,12.20
2012,05,26,07,19,12.20
2012,05,26,07,20,12.30
2012,05,26,07,21,12.30
2012,05,26,07,22,12.30
2012,05,26,07,23,12.30
2012,05,26,07,24,12.40
2012,05,26,07,25,12.40
2012,05,26,07,26,12.50
2012,05,26,07,27,12.50
2012,05,26,07,28,12.50
2012,05,26,07,29,12.60
2012,05,26,07,30,12.60
2012,05,26,07,31,12.70
2012,05,26,07,32,12.70
2012,05,26,07,33,12.80
2012,05,26,07,34,12.80
2012,05,26,07,35,12.90
2012,05,26,07,36,12.90
2012,05,26,07,37,12.90
2012,05,26,07,38,13.00
2012,05,26,07,39,13.00
2012,05,26,07,40,13.00
2012,05,26,07,41,13.10
2012,05,26,07,42,13.10
2012,05,26,07,43,13.20
2012,05,26,07,44,13.20
2012,05,26,07,45,13.30
2012,05,26,07,46,13.30
2012,05,26,07,47,13.30
2012,05,26,07,48,13.30
2012,05,26,07,49,13.30
2012,05,26,07,50,13.30
2012,05,26,07,51,13.40
2012,05,26,07,52,13.40
2012,05,26,07,53,13.40
2012,05,26,07,54,13.50
2012,05,26,07,55,13.50
2012,05,26,07,56,13.50
2012,05,26,07,57,13.60
2012,05,26,07,58,13.60
2012,05,26,07,59,13.70
2012,05,26,08,00,13.70
2012,05,26,08,01,13.80
2012,05,26,08,02,13.90
2012,05,26,08,03,14.00
2012,05,26,08,04,14.00
2012,05,26,08,05,14.10
2012,05,26,08,06,14.20
2012,05,26,08,07,14.40
2012,05,26,08,08,14.50
2012,05,26,08,09,14.60
2012,05,26,08,10,14.70
2012,05,26,08,11,14.90
2012,05,26,08,12,15.00
2012,05,26,08,13,15.10
2012,05,26,08,14,15.20
2012,05,26,08,15,15.30
2012,05,26,08,16,15.50
2012,05,26,08,17,15.60
2012,05,26,08,18,15.80
2012,05,26,08,19,15.90
2012,05,26,08,20,16.10
2012,05,26,08,21,16.20
2012,05,26,08,22,16.40
2012,05,26,08,23,16.50
2012,05,26,08,24,16.60
2012,05,26,08,25,16.70
2012,05,26,08,26,16.80
2012,05,26,08,27,16.90
2012,05,26,08,28,17.00
2012,05,26,08,29,17.00
2012,05,26,08,30,17.00
2012,05,26,08,31,17.10
2012,05,26,08,32,17.20
2012,05,26,08,33,17.20
2012,05,26,08,34,17.20
2012,05,26,08,35,17.20
2012,05,26,08,36,17.20
2012,05,26,08,37,17.30
2012,05,26,08,38,17.30
2012,05,26,08,39,17.30
2012,05,26,08,40,17.30
2012,05,26,08,41,17.30
2012,05,26,08,42,17.30
2012,05,26,08,43,17.30
2012,05,26,08,44,17.30
2012,05,26,08,45,17.30
2012,05,26,08,46,17.30
2012,05,26,08,47,17.30
2012,05,26,08,48,17.30
2012,05,26,08,49,17.30
2012,05,26,08,50,17.40
2012,05,26,08,51,17.40
2012,05,26,08,52,17.40
2012,05,26,08,53,17.40
2012,05,26,08,54,17.50
2012,05,26,08,55,17.50
2012,05,26,08,56,17.50
2012,05,26,08,57,17.60
2012,05,26,08,58,17.60
2012,05,26,08,59,17.60
2012,05,26,09,00,17.50
2012,05,26,09,01,17.50
2012,05,26,09,02,17.50
2012,05,26,09,03,17.40
2012,05,26,09,04,17.30
2012,05,26,09,05,17.30
2012,05,26,09,06,17.30
2012,05,26,09,07,17.30
2012,05,26,09,08,17.30
2012,05,26,09,09,17.30
2012,05,26,09,10,17.30
2012,05,26,09,11,17.30
2012,05,26,09,12,17.40
2012,05,26,09,13,17.50
2012,05,26,09,14,17.60
2012,05,26,09,15,17.70
2012,05,26,09,16,17.80
2012,05,26,09,17,17.80
2012,05,26,09,18,17.80
2012,05,26,09,19,17.80
2012,05,26,09,20,17.90
2012,05,26,09,21,17.90
2012,05,26,09,22,17.90
2012,05,26,09,23,18.00
2012,05,26,09,24,18.10
2012,05,26,09,25,18.10
2012,05,26,09,26,18.20
2012,05,26,09,27,18.10
2012,05,26,09,28,18.10
2012,05,26,09,29,18.10
2012,05,26,09,30,18.10
2012,05,26,09,31,18.00
2012,05,26,09,32,18.00
2012,05,26,09,33,18.00
2012,05,26,09,34,18.10
2012,05,26,09,35,18.00
2012,05,26,09,36,17.90
2012,05,26,09,37,17.90
2012,05,26,09,38,17.90
2012,05,26,09,39,17.90
2012,05,26,09,40,17.80
2012,05,26,09,41,17.70
2012,05,26,09,42,17.70
2012,05,26,09,43,17.70
2012,05,26,09,44,17.70
2012,05,26,09,45,17.60
2012,05,26,09,46,17.50
2012,05,26,09,47,17.40
2012,05,26,09,48,17.50
2012,05,26,09,49,17.60
2012,05,26,09,50,17.70
2012,05,26,09,51,17.80
2012,05,26,09,52,17.80
2012,05,26,09,53,17.90
2012,05,26,09,54,17.90
2012,05,26,09,55,17.90
2012,05,26,09,56,17.90
2012,05,26,09,57,17.90
2012,05,26,09,58,17.90
2012,05,26,09,59,17.90
2012,05,26,10,00,17.90
2012,05,26,10,01,17.90
2012,05,26,10,02,17.90
2012,05,26,10,03,18.00
2012,05,26,10,04,18.10
2012,05,26,10,05,18.10
2012,05,26,10,06,18.10
2012,05,26,10,07,18.20
2012,05,26,10,08,18.30
2012,05,26,10,09,18.30
2012,05,26,10,10,18.30
2012,05,26,10,11,18.30
2012,05,26,10,12,18.40
2012,05,26,10,13,18.60
2012,05,26,10,14,18.70
2012,05,26,10,15,18.80
2012,05,26,10,16,18.90
2012,05,26,10,17,18.90
2012,05,26,10,18,18.90
2012,05,26,10,19,18.90
2012,05,26,10,20,18.90
2012,05,26,10,21,18.90
2012,05,26,10,22,18.90
2012,05,26,10,23,18.90
2012,05,26,10,24,18.90
2012,05,26,10,25,18.90
2012,05,26,10,26,18.90
2012,05,26,10,27,18.90
2012,05,26,10,28,18.90
2012,05,26,10,29,18.90
2012,05,26,10,30,18.80
2012,05,26,10,31,18.70
2012,05,26,10,32,18.60
2012,05,26,10,33,18.60
2012,05,26,10,34,18.50
2012,05,26,10,35,18.50
2012,05,26,10,36,18.40
2012,05,26,10,37,18.40
2012,05,26,10,38,18.30
2012,05,26,10,39,18.20
2012,05,26,10,40,18.10
2012,05,26,10,41,18.00
2012,05,26,10,42,17.90
2012,05,26,10,43,17.90
2012,05,26,10,44,17.80
2012,05,26,10,45,17.80
2012,05,26,10,46,17.80
2012,05,26,10,47,17.80
2012,05,26,10,48,17.90
2012,05,26,10,49,18.00
2012,05,26,10,50,18.10
2012,05,26,10,51,18.20
2012,05,26,10,52,18.20
2012,05,26,10,53,18.30
2012,05,26,10,54,18.40
2012,05,26,10,55,18.40
2012,05,26,10,56,18.30
2012,05,26,10,57,18.30
2012,05,26,10,58,18.20
2012,05,26,10,59,18.20
2012,05,26,11,00,18.10
2012,05,26,11,01,18.10
2012,05,26,11,02,18.00
2012,05,26,11,03,17.90
2012,05,26,11,04,17.90
2012,05,26,11,05,17.90
2012,05,26,11,06,17.90
2012,05,26,11,07,17.90
2012,05,26,11,08,17.90
2012,05,26,11,09,17.90
2012,05,26,11,10,17.90
2012,05,26,11,11,17.90
2012,05,26,11,12,17.90
2012,05,26,11,13,17.90
2012,05,26,11,14,17.90
2012,05,26,11,15,17.90
2012,05,26,11,16,17.90
2012,05,26,11,17,17.90
2012,05,26,11,18,17.80
2012,05,26,11,19,17.80
2012,05,26,11,20,17.80
2012,05,26,11,21,17.80
2012,05,26,11,22,17.80
2012,05,26,11,23,17.80
2012,05,26,11,24,17.80
2012,05,26,11,25,17.80
2012,05,26,11,26,17.80
2012,05,26,11,27,17.90
2012,05,26,11,28,17.90
2012,05,26,11,29,17.90
2012,05,26,11,30,17.90
2012,05,26,11,31,18.10
2012,05,26,11,32,18.10
2012,05,26,11,33,18.20
2012,05,26,11,34,18.20
2012,05,26,11,35,18.30
2012,05,26,11,36,18.30
2012,05,26,11,37,18.40
2012,05,26,11,38,18.40
2012,05,26,11,39,18.40
2012,05,26,11,40,18.50
2012,05,26,11,41,18.50
2012,05,26,11,42,18.50
2012,05,26,11,43,18.50
2012,05,26,11,44,18.40
2012,05,26,11,45,18.30
2012,05,26,11,46,18.30
2012,05,26,11,47,18.20
2012,05,26,11,48,18.20
2012,05,26,11,49,18.20
2012,05,26,11,50,18.20
2012,05,26,11,51,18.20
2012,05,26,11,52,18.20
2012,05,26,11,53,18.20
2012,05,26,11,54,18.10
2012,05,26,11,55,18.00
2012,05,26,11,56,17.90
2012,05,26,11,57,17.90
2012,05,26,11,58,17.90
2012,05,26,11,59,18.00
2012,05,26,12,00,18.10
2012,05,26,12,01,18.10
2012,05,26,12,02,18.20
2012,05,26,12,03,18.20
2012,05,26,12,04,18.20
2012,05,26,12,05,18.30
2012,05,26,12,06,18.30
2012,05,26,12,07,18.40
2012,05,26,12,08,18.40
2012,05,26,12,09,18.40
2012,05,26,12,10,18.50
2012,05,26,12,11,18.50
2012,05,26,12,12,18.50
2012,05,26,12,13,18.50
2012,05,26,12,14,18.50
2012,05,26,12,15,18.50
2012,05,26,12,16,18.50
2012,05,26,12,17,18.50
2012,05,26,12,18,18.50
2012,05,26,12,19,18.60
2012,05,26,12,20,18.60
2012,05,26,12,21,18.70
2012,05,26,12,22,18.80
2012,05,26,12,23,18.90
2012,05,26,12,24,19.00
2012,05,26,12,25,19.10
2012,05,26,12,26,19.10
2012,05,26,12,27,19.10
2012,05,26,12,28,19.10
2012,05,26,12,29,19.10
2012,05,26,12,30,19.10
2012,05,26,12,31,19.10
2012,05,26,12,32,19.10
2012,05,26,12,33,19.00
2012,05,26,12,34,19.00
2012,05,26,12,35,19.10
2012,05,26,12,36,19.10
2012,05,26,12,37,19.20
2012,05,26,12,38,19.30
2012,05,26,12,39,19.30
2012,05,26,12,40,19.40
2012,05,26,12,41,19.50
2012,05,26,12,42,19.50
2012,05,26,12,43,19.50
2012,05,26,12,44,19.60
2012,05,26,12,45,19.70
2012,05,26,12,46,19.70
2012,05,26,12,47,19.60
2012,05,26,12,48,19.60
2012,05,26,12,49,19.60
2012,05,26,12,50,19.60
2012,05,26,12,51,19.50
2012,05,26,12,52,19.40
2012,05,26,12,53,19.40
2012,05,26,12,54,19.40
2012,05,26,12,55,19.40
2012,05,26,12,56,19.50
2012,05,26,12,57,19.60
2012,05,26,12,58,19.60
2012,05,26,12,59,19.60
2012,05,26,13,00,19.60
2012,05,26,13,01,19.60
2012,05,26,13,02,19.60
2012,05,26,13,03,19.60
2012,05,26,13,04,19.70
2012,05,26,13,05,19.80
2012,05,26,13,06,19.80
2012,05,26,13,07,19.80
2012,05,26,13,08,19.80
2012,05,26,13,09,19.80
2012,05,26,13,10,19.80
2012,05,26,13,11,19.80
2012,05,26,13,12,19.80
2012,05,26,13,13,19.80
2012,05,26,13,14,19.90
2012,05,26,13,15,19.90
2012,05,26,13,16,19.90
2012,05,26,13,17,19.90
2012,05,26,13,18,19.90
2012,05,26,13,19,19.90
2012,05,26,13,20,19.90
2012,05,26,13,21,19.90
2012,05,26,13,22,19.90
2012,05,26,13,23,19.90
2012,05,26,13,24,20.00
2012,05,26,13,25,20.20
2012,05,26,13,26,20.30
2012,05,26,13,27,20.40
2012,05,26,13,28,20.60
2012,05,26,13,29,20.60
2012,05,26,13,30,20.70
2012,05,26,13,31,20.80
2012,05,26,13,32,20.80
2012,05,26,13,33,20.80
2012,05,26,13,34,20.80
2012,05,26,13,35,20.80
2012,05,26,13,36,20.80
2012,05,26,13,37,20.80
2012,05,26,13,38,20.80
2012,05,26,13,39,20.80
2012,05,26,13,40,20.80
2012,05,26,13,41,20.90
2012,05,26,13,42,20.90
2012,05,26,13,43,20.90
2012,05,26,13,44,21.00
2012,05,26,13,45,21.00
2012,05,26,13,46,21.00
2012,05,26,13,47,21.10
2012,05,26,13,48,21.10
2012,05,26,13,49,21.10
2012,05,26,13,50,21.10
2012,05,26,13,51,21.10
2012,05,26,13,52,21.00
2012,05,26,13,53,21.00
2012,05,26,13,54,21.00
2012,05,26,13,55,21.00
2012,05,26,13,56,21.10
2012,05,26,13,57,21.20
2012,05,26,13,58,21.30
2012,05,26,13,59,21.40
2012,05,26,14,00,21.50
2012,05,26,14,01,21.60
2012,05,26,14,02,21.60
2012,05,26,14,03,21.60
2012,05,26,14,04,21.60
2012,05,26,14,05,21.60
2012,05,26,14,06,21.50
2012,05,26,14,07,21.40
2012,05,26,14,08,21.30
2012,05,26,14,09,21.30
2012,05,26,14,10,21.30
2012,05,26,14,11,21.40
2012,05,26,14,12,21.40
2012,05,26,14,13,21.40
2012,05,26,14,14,21.40
2012,05,26,14,15,21.30
2012,05,26,14,16,21.30
2012,05,26,14,17,21.20
2012,05,26,14,18,21.20
2012,05,26,14,19,21.20
2012,05,26,14,20,21.10
2012,05,26,14,21,21.10
2012,05,26,14,22,21.10
2012,05,26,14,23,21.10
2012,05,26,14,24,21.20
2012,05,26,14,25,21.20
2012,05,26,14,26,21.20
2012,05,26,14,27,21.20
2012,05,26,14,28,21.20
2012,05,26,14,29,21.20
2012,05,26,14,30,21.20
2012,05,26,14,31,21.30
2012,05,26,14,32,21.20
2012,05,26,14,33,21.20
2012,05,26,14,34,21.20
2012,05,26,14,35,21.20
2012,05,26,14,36,21.20
2012,05,26,14,37,21.20
2012,05,26,14,38,21.20
2012,05,26,14,39,21.20
2012,05,26,14,40,21.20
2012,05,26,14,41,21.20
2012,05,26,14,42,21.20
2012,05,26,14,43,21.20
2012,05,26,14,44,21.30
2012,05,26,14,45,21.30
2012,05,26,14,46,21.30
2012,05,26,14,47,21.40
2012,05,26,14,48,21.50
2012,05,26,14,49,21.50
2012,05,26,14,50,21.40
2012,05,26,14,51,21.50
2012,05,26,14,52,21.60
2012,05,26,14,53,21.60
2012,05,26,14,54,21.70
2012,05,26,14,55,21.70
2012,05,26,14,56,21.70
2012,05,26,14,57,21.80
2012,05,26,14,58,21.80
2012,05,26,14,59,21.90
2012,05,26,15,00,22.00
2012,05,26,15,01,22.00
2012,05,26,15,02,21.90
2012,05,26,15,03,22.00
2012,05,26,15,04,22.00
2012,05,26,15,05,22.10
2012,05,26,15,06,22.20
2012,05,26,15,07,22.20
2012,05,26,15,08,22.20
2012,05,26,15,09,22.20
2012,05,26,15,10,22.20
2012,05,26,15,11,22.10
2012,05,26,15,12,22.10
2012,05,26,15,13,22.00
2012,05,26,15,14,22.00
2012,05,26,15,15,21.90
2012,05,26,15,16,21.80
2012,05,26,15,17,21.80
2012,05,26,15,18,21.80
2012,05,26,15,19,21.90
2012,05,26,15,20,22.00
2012,05,26,15,21,22.20
2012,05,26,15,22,22.30
2012,05,26,15,23,22.40
2012,05,26,15,24,22.40
2012,05,26,15,25,22.30
2012,05,26,15,26,22.30
2012,05,26,15,27,22.30
2012,05,26,15,28,22.20
2012,05,26,15,29,22.20
2012,05,26,15,30,22.10
2012,05,26,15,31,22.10
2012,05,26,15,32,22.00
2012,05,26,15,33,22.00
2012,05,26,15,34,22.00
2012,05,26,15,35,22.10
2012,05,26,15,36,22.10
2012,05,26,15,37,22.10
2012,05,26,15,38,22.00
2012,05,26,15,39,21.90
2012,05,26,15,40,21.80
2012,05,26,15,41,21.70
2012,05,26,15,42,21.70
2012,05,26,15,43,21.60
2012,05,26,15,44,21.60
2012,05,26,15,45,21.60
2012,05,26,15,46,21.50
2012,05,26,15,47,21.40
2012,05,26,15,48,21.30
2012,05,26,15,49,21.30
2012,05,26,15,50,21.30
2012,05,26,15,51,21.30
2012,05,26,15,52,21.20
2012,05,26,15,53,21.10
2012,05,26,15,54,21.00
2012,05,26,15,55,20.90
2012,05,26,15,56,20.80
2012,05,26,15,57,20.70
2012,05,26,15,58,20.60
2012,05,26,15,59,20.50
2012,05,26,16,00,20.40
2012,05,26,16,01,20.50
2012,05,26,16,02,20.50
2012,05,26,16,03,20.70
2012,05,26,16,04,20.80
2012,05,26,16,05,20.90
2012,05,26,16,06,21.00
2012,05,26,16,07,21.10
2012,05,26,16,08,21.10
2012,05,26,16,09,21.10
2012,05,26,16,10,21.10
2012,05,26,16,11,21.10
2012,05,26,16,12,21.10
2012,05,26,16,13,21.30
2012,05,26,16,14,21.40
2012,05,26,16,15,21.50
2012,05,26,16,16,21.60
2012,05,26,16,17,21.70
2012,05,26,16,18,21.80
2012,05,26,16,19,21.90
2012,05,26,16,20,21.90
2012,05,26,16,21,22.00
2012,05,26,16,22,22.10
2012,05,26,16,23,22.20
2012,05,26,16,24,22.20
2012,05,26,16,25,22.30
2012,05,26,16,26,22.30
2012,05,26,16,27,22.30
2012,05,26,16,28,22.30
2012,05,26,16,29,22.30
2012,05,26,16,30,22.40
2012,05,26,16,31,22.50
2012,05,26,16,32,22.60
2012,05,26,16,33,22.60
2012,05,26,16,34,22.70
2012,05,26,16,35,22.90
2012,05,26,16,36,22.90
2012,05,26,16,37,22.90
2012,05,26,16,38,23.00
2012,05,26,16,39,23.10
2012,05,26,16,40,23.20
2012,05,26,16,41,23.10
2012,05,26,16,42,23.10
2012,05,26,16,43,23.10
2012,05,26,16,44,23.10
2012,05,26,16,45,23.10
2012,05,26,16,46,23.10
2012,05,26,16,47,23.10
2012,05,26,16,48,23.00
2012,05,26,16,49,22.90
2012,05,26,16,50,22.80
2012,05,26,16,51,22.80
2012,05,26,16,52,22.70
2012,05,26,16,53,22.70
2012,05,26,16,54,22.80
2012,05,26,16,55,22.90
2012,05,26,16,56,23.00
2012,05,26,16,57,23.10
2012,05,26,16,58,23.20
2012,05,26,16,59,23.20
2012,05,26,17,00,23.20
2012,05,26,17,01,23.20
2012,05,26,17,02,23.20
2012,05,26,17,03,23.20
2012,05,26,17,04,23.30
2012,05,26,17,05,23.50
2012,05,26,17,06,23.60
2012,05,26,17,07,23.40
2012,05,26,17,08,23.30
2012,05,26,17,09,23.20
2012,05,26,17,10,23.10
2012,05,26,17,11,23.10
2012,05,26,17,12,23.00
2012,05,26,17,13,22.90
2012,05,26,17,14,22.90
2012,05,26,17,15,22.90
2012,05,26,17,16,22.90
2012,05,26,17,17,22.90
2012,05,26,17,18,23.00
2012,05,26,17,19,23.10
2012,05,26,17,20,23.20
2012,05,26,17,21,23.40
2012,05,26,17,22,23.50
2012,05,26,17,23,23.60
2012,05,26,17,24,23.70
2012,05,26,17,25,23.70